Regional Weather Roundup
Issued by NWS

Home | Current Version | Previous Version | Text Only | Print | Product List | Glossary Off
Versions: 1 2 3 4 5 6 7 8 9 10 11 12 13 14 15 16 17 18 19 20 21 22 23 24 25 26 27

000
ASUS45 KCYS 141110
RWRWY

WYOMING REGIONAL WEATHER ROUNDUP
NATIONAL WEATHER SERVICE CHEYENNE WY
400 AM MST THU DEC 14 2017

NOTE:  "FAIR" INDICATES FEW OR NO CLOUDS BELOW 12,000 FEET
WITH NO SIGNIFICANT WEATHER AND/OR OBSTRUCTIONS TO VISIBILITY.

WYZ001-141200-
YELLOWSTONE NATIONAL PARK

CITY           SKY/WX    TMP DP  RH WIND       PRES   REMARKS
LK YELLOWSTONE   N/A      5   1  83 CALM      30.35R
W YELLOWSTONE  NOT AVBL

$$
WYZ002>013-054>058-071-098>099-141200-
NORTHERN WYOMING

CITY           SKY/WX    TMP DP  RH WIND       PRES   REMARKS
JACKSON        FAIR      13  11  92 N9          N/A  WCI   1
CODY           FAIR      24  21  88 CALM      30.28F
GREYBULL       FAIR      32  22  66 NW10      30.26  WCI  24
WORLAND        FAIR      29  23  78 NW8       30.27R WCI  21
SHERIDAN       MOCLDY    37  24  59 NW29G39   30.23R WCI  25
BUFFALO        FLURRIES  36  19  50 N35G52    30.17R WCI  22
GILLETTE       MOCLDY    34  23  64 NW18G31   30.15R WCI  23
HULETT         CLOUDY    32  25  74 N17G24    30.13R WCI  21
NEWCASTLE      PTSUNNY   32  23  69 NW21G28   30.11S WCI  20

$$
WYZ014>020-022>026-101>103-141200-
CENTRAL WYOMING

CITY           SKY/WX    TMP DP  RH WIND       PRES   REMARKS
BIG PINEY      FAIR       8   5  87 E3        30.27R
PINEDALE       FOG       10   9  92 W3        30.27S VSB<1/4
DUBOIS         FAIR      18  12  79 CALM      30.24S
LANDER         CLOUDY    28  21  75 VRB7      30.26S WCI  21
RIVERTON       CLOUDY    27  24  89 NW8       30.27S WCI  19
CASPER         MOCLDY    25  21  85 W8        30.20S WCI  16
DOUGLAS        CLOUDY    32  28  85 NW15      30.17S WCI  22

$$
WYZ021-027>030-104>119-141200-
SOUTHERN WYOMING

CITY           SKY/WX    TMP DP  RH WIND       PRES   REMARKS
EVANSTON       CLOUDY    24  21  88 NW6       30.28R WCI  17
FORT BRIDGER   CLOUDY    27  26  99 W6        30.30R WCI  20
ROCK SPRINGS   FAIR      21  18  88 W3        30.26R
DIXON          FAIR      25  19  78 N10       30.22R WCI  14
RAWLINS        CLOUDY    25  22  88 NW8       30.21S WCI  16
SARATOGA       CLOUDY    25  25 100 NW9       30.20S WCI  15
LARAMIE        CLOUDY    20  19  96 NW6       30.14S WCI  12
CHEYENNE       MOCLDY    26  23  88 NW9       30.14F WCI  17
TORRINGTON     CLOUDY    34  23  64 NW14      30.14F WCI  25
PINE BLUFFS    FAIR      30  25  80 NW17      30.15R WCI  18

$$




USA.gov is the U.S. government's official web portal to all federal, state and local government web resources and services.